[[{"header":{"parameterUnit":"m.s-1","parameterCategory":1,"la1":30.2991,"la2":30.254,"lo1":-89.0895,"lo2":-89.0444,"dy":0.0017,"dx":0.0017,"nx":28,"ny":28,"refTime":"2024-06-04T09:00:00:Z","depth":0,"parameterNumber":2,"parameterNumberName":"U-component_of_WINDS"},"data":[0,0,0,0,0,0,0,0,0,0,0,0,0,0,0,0,0,0,0,0,0,0,0,0,0,0,0,0,0,0,0,0,0,0,0,0,0,0,0,0,0,0,0,0,0,0,0,0,0,0,0,0,0,0,0,0,0,0,-0.9546,-0.9544,0,-0.942,-0.9419,-0.9418,-0.9339,-0.9338,-0.9338,-0.9338,-0.9208,-0.9205,-0.9202,0,0,0,0,0,0,0,0,0,0,0,0,0,-0.9717,-0.9714,-0.9546,-0.9544,-0.9543,-0.9421,-0.9419,-0.9417,-0.9339,-0.9338,-0.9338,-0.9337,-0.9209,-0.9205,-0.9202,0,0,0,0,0,0,0,0,0,0,0,0,0,-0.9622,-0.9713,-0.9546,-0.9489,-0.9483,-0.9421,-0.9419,-0.9417,-0.9339,-0.9338,-0.9338,-0.9337,-0.921,-0.9206,-0.9201,-0.9186,0,0,-0.9187,-0.9185,0,0,0,0,0,0,0,0,-0.9628,-0.9616,-0.9499,-0.9493,-0.9486,-0.9395,-0.9431,-0.9339,-0.9339,-0.9394,-0.9338,-0.9337,-0.927,-0.9261,-0.9239,-0.918,-0.9174,-0.9187,-0.9184,-0.9182,-0.9181,0,0,0,0,0,0,0,-0.9634,-0.9621,-0.9496,-0.9497,-0.9489,-0.9469,-0.9455,-0.9414,-0.9337,-0.9389,-0.9383,-0.9369,-0.9267,-0.9243,-0.9235,-0.9173,-0.9187,-0.9183,-0.918,-0.9178,-0.9095,-0.9095,0,0,0,0,0,0,-0.965,-0.9627,-0.95,-0.9492,-0.9556,-0.9467,-0.9451,-0.9424,-0.9337,-0.9324,-0.937,-0.9366,-0.9251,-0.9241,-0.923,-0.9206,-0.9182,-0.9178,-0.9175,-0.9094,-0.9095,-0.9096,0,0,0,0,0,0,-0.9654,-0.9639,-0.9505,-0.9558,-0.9539,-0.9465,-0.9435,-0.9422,-0.9399,-0.9323,-0.9309,-0.936,-0.925,-0.9237,-0.9198,-0.9201,-0.9176,-0.9172,-0.9094,-0.9095,-0.9095,-0.9159,0,0,0,0,0,0,-0.9659,-0.9641,-0.9635,-0.9558,-0.9537,-0.9475,-0.9436,-0.942,-0.9391,-0.9385,-0.931,-0.9297,-0.9249,-0.9205,-0.9193,-0.9194,-0.9168,-0.9093,-0.9094,-0.9095,-0.9156,-0.9162,-0.9167,0,0,0,0,0,-0.9666,-0.9658,-0.9635,-0.962,-0.9527,-0.9476,-0.9463,-0.9408,-0.9392,-0.9385,-0.9336,-0.9299,-0.9203,-0.9202,-0.9188,-0.9187,-0.9093,-0.9094,-0.9095,-0.9154,-0.9161,-0.9167,0,0,0,0,0,0,-0.9736,-0.9647,-0.962,-0.9588,-0.954,-0.9462,-0.9452,-0.9417,-0.9373,-0.9369,-0.9302,-0.9286,-0.9253,-0.9216,-0.9217,-0.9168,-0.9143,-0.9142,-0.9193,-0.9199,-0.9204,-0.9213,-0.9164,0,0,0,0,0,-0.9748,-0.9714,-0.9637,-0.9616,-0.9593,-0.9527,-0.9502,-0.9464,-0.9412,-0.9391,-0.9339,-0.9289,-0.9248,-0.9221,-0.9179,-0.9151,-0.9133,-0.9144,-0.9149,-0.9154,-0.9153,-0.9135,-0.9139,-0.9099,-0.9099,-0.9099,0,0,-0.9772,-0.9719,-0.9701,-0.9629,-0.9587,-0.9553,-0.951,-0.9476,-0.9449,-0.9385,-0.9345,-0.9306,-0.9246,-0.9213,-0.9195,-0.9181,-0.916,-0.9155,-0.916,-0.9156,-0.9137,-0.914,-0.9144,-0.91,-0.91,-0.91,0,0,-0.9798,-0.9755,-0.9732,-0.9691,-0.9629,-0.9585,-0.958,-0.9507,-0.9479,-0.9438,-0.9389,-0.9357,-0.9286,-0.9245,-0.9215,-0.9227,-0.9191,-0.9215,-0.9242,-0.9225,-0.9228,-0.923,-0.9233,-0.9236,-0.9214,-0.9215,-0.9215,0,-0.9836,-0.9782,-0.9724,-0.9692,-0.9662,-0.9603,-0.9579,-0.9543,-0.947,-0.945,-0.9435,-0.9345,-0.9301,-0.9257,-0.926,-0.9238,-0.9229,-0.9222,-0.9232,-0.9234,-0.9235,-0.9238,-0.9239,-0.9218,-0.9217,-0.9217,-0.9217,0,-0.9831,-0.9794,-0.9783,-0.9714,-0.9683,-0.9655,-0.9593,-0.9568,-0.9533,-0.9491,-0.945,-0.9394,-0.9339,-0.9326,-0.9292,-0.9277,-0.927,-0.9245,-0.9218,-0.9243,-0.9244,-0.9245,-0.9222,-0.9221,-0.922,-0.9219,0,0,-0.9896,-0.9797,-0.9794,-0.9762,-0.9689,-0.9659,-0.9629,-0.9576,-0.9555,-0.9507,-0.948,-0.9422,-0.9398,-0.9364,-0.9325,-0.931,-0.9322,-0.9286,-0.9284,-0.9294,-0.9302,-0.9321,-0.9323,-0.9299,-0.9298,-0.9298,-0.9306,0,-0.9911,-0.9853,-0.9801,-0.9763,-0.9728,-0.9672,-0.9646,-0.9598,-0.9558,-0.9523,-0.9478,-0.9438,-0.941,-0.9389,-0.9372,-0.9324,-0.9322,-0.9323,-0.9271,-0.927,-0.9287,-0.9323,-0.9343,-0.9353,-0.9307,-0.9307,-0.9307,0,-0.9919,-0.9874,-0.9832,-0.9763,-0.9746,-0.9724,-0.967,-0.9638,-0.9583,-0.9554,-0.9517,-0.9476,-0.9441,-0.9419,-0.937,-0.9372,-0.9347,-0.9321,-0.932,-0.9312,-0.9289,-0.9315,-0.9355,-0.9356,-0.9307,-0.9307,-0.9307,0,-0.9971,-0.9899,-0.9865,-0.9839,-0.9758,-0.9743,-0.9708,-0.9652,-0.9624,-0.9578,-0.9558,-0.9509,-0.9481,-0.9443,-0.939,-0.9379,-0.9346,-0.932,-0.932,-0.9322,-0.9315,-0.9316,-0.935,-0.9302,-0.9302,-0.9302,-0.9302,0,-0.9991,-0.9968,-0.9886,-0.9865,-0.9837,-0.9777,-0.9751,-0.9712,-0.9663,-0.9632,-0.9582,-0.9554,-0.9485,-0.945,-0.9408,-0.9373,-0.9361,-0.9337,-0.9325,-0.9341,-0.9344,-0.9323,-0.932,-0.9302,-0.9302,-0.9302,-0.9302,0,-1.0043,-0.9988,-0.9946,-0.9873,-0.9854,-0.9836,-0.9773,-0.975,-0.9708,-0.967,-0.9658,-0.9591,-0.9546,-0.9489,-0.9427,-0.9398,-0.9368,-0.9351,-0.9387,-0.938,-0.9383,-0.9384,-0.9405,-0.9404,-0.9358,-0.9358,-0.9359,0,-1.006,-1.004,-0.9965,-0.9941,-0.9908,-0.987,-0.9841,-0.9782,-0.9753,-0.9689,-0.9674,-0.9626,-0.9584,-0.9515,-0.9461,-0.9413,-0.9394,-0.9405,-0.9386,-0.9402,-0.9393,-0.9394,-0.9392,-0.9409,-0.941,-0.941,-0.9411,0,-1.0094,-1.0068,-1.0027,-0.9978,-0.9944,-0.9902,-0.9857,-0.9841,-0.9772,-0.9743,-0.9697,-0.9664,-0.9601,-0.9553,-0.9498,-0.9462,-0.9425,-0.9418,-0.9415,-0.9429,-0.945,-0.9438,-0.9398,-0.9417,-0.9416,-0.9416,-0.9416,-0.9415,-1.0128,-1.0108,-1.0052,-1.0008,-0.9969,-0.9928,-0.9903,-0.9858,-0.9818,-0.9762,-0.973,-0.9685,-0.963,-0.9552,-0.9518,-0.9481,-0.9467,-0.9464,-0.9463,-0.9463,-0.9467,-0.9457,-0.9471,-0.9471,-0.9471,-0.9471,-0.947,0,-1.0159,-1.012,-1.0081,-1.0021,-0.9987,-0.9956,-0.9905,-0.9878,-0.9839,-0.9792,-0.9752,-0.9699,-0.9653,-0.9595,-0.9545,-0.9527,-0.9509,-0.9516,-0.9516,-0.9508,-0.9483,-0.949,-0.9531,-0.9531,-0.9531,-0.9531,-0.9531,-0.9531,-1.0171,-1.0136,-1.0103,-1.0047,-1.0008,-0.9964,-0.9937,-0.99,-0.9861,-0.9805,-0.9766,-0.9729,-0.9677,-0.9623,-0.9579,-0.9563,-0.9547,-0.9559,-0.9538,-0.9515,-0.951,-0.9505,-0.9511,-0.9556,-0.9556,-0.9565,-0.9566,-0.9566]},{"header":{"parameterUnit":"m.s-1","parameterCategory":1,"la1":30.2991,"la2":30.254,"lo1":-89.0895,"lo2":-89.0444,"dy":0.0017,"dx":0.0017,"nx":28,"ny":28,"refTime":"2024-06-04T09:00:00:Z","depth":0,"parameterNumber":3,"parameterNumberName":"V-component_of_WINDS"},"data":[0,0,0,0,0,0,0,0,0,0,0,0,0,0,0,0,0,0,0,0,0,0,0,0,0,0,0,0,0,0,0,0,0,0,0,0,0,0,0,0,0,0,0,0,0,0,0,0,0,0,0,0,0,0,0,0,0,0,5.5143,5.5142,0,5.5086,5.5085,5.5084,5.5039,5.5038,5.5038,5.5038,5.4976,5.4974,5.4973,0,0,0,0,0,0,0,0,0,0,0,0,0,5.521,5.5209,5.5143,5.5142,5.5141,5.5086,5.5085,5.5084,5.5039,5.5038,5.5038,5.5037,5.4976,5.4974,5.4973,0,0,0,0,0,0,0,0,0,0,0,0,0,5.5169,5.5208,5.5143,5.5112,5.5109,5.5086,5.5085,5.5084,5.5039,5.5038,5.5038,5.5037,5.4976,5.4975,5.4973,5.4975,0,0,5.4967,5.4966,0,0,0,0,0,0,0,0,5.5172,5.5167,5.5117,5.5114,5.5111,5.5069,5.5086,5.5047,5.5039,5.5065,5.5038,5.5037,5.5007,5.5002,5.4993,5.4972,5.4969,5.4967,5.4966,5.4965,5.4965,0,0,0,0,0,0,0,5.5175,5.5169,5.512,5.5117,5.5113,5.51,5.5094,5.5078,5.504,5.5063,5.506,5.5054,5.5005,5.4995,5.4991,5.4968,5.4967,5.4965,5.4964,5.4963,5.4947,5.4947,0,0,0,0,0,0,5.5183,5.5172,5.5122,5.5118,5.514,5.51,5.5092,5.5083,5.5041,5.5034,5.5054,5.5052,5.4999,5.4994,5.4989,5.4989,5.4965,5.4963,5.4962,5.4946,5.4947,5.4948,0,0,0,0,0,0,5.5184,5.5179,5.5124,5.5144,5.5136,5.5099,5.5089,5.5082,5.5072,5.5034,5.5027,5.5052,5.4998,5.4992,5.4979,5.4987,5.4962,5.4961,5.4945,5.4946,5.4947,5.499,0,0,0,0,0,0,5.5186,5.5179,5.518,5.5145,5.5136,5.5116,5.5089,5.5081,5.507,5.5066,5.5029,5.5023,5.4997,5.4982,5.4977,5.4984,5.4959,5.4945,5.4946,5.4947,5.4988,5.4992,5.4996,0,0,0,0,0,5.5189,5.5194,5.5181,5.5175,5.5136,5.5117,5.5111,5.5083,5.507,5.5071,5.5046,5.5024,5.4987,5.4981,5.4975,5.4981,5.4944,5.4945,5.4947,5.4986,5.4991,5.4996,0,0,0,0,0,0,5.523,5.5188,5.5174,5.5167,5.5146,5.5109,5.5109,5.5089,5.507,5.5067,5.5031,5.5023,5.5015,5.4997,5.4991,5.4982,5.4962,5.4963,5.4994,5.4999,5.5003,5.5008,5.4958,0,0,0,0,0,5.5238,5.5227,5.5191,5.5189,5.5179,5.5146,5.5136,5.5116,5.5092,5.5083,5.5057,5.5034,5.5018,5.5007,5.4989,5.4985,5.4976,5.4986,5.499,5.4994,5.4995,5.4992,5.4996,5.4953,5.4953,5.4953,0,0,5.5255,5.5231,5.5226,5.5196,5.5178,5.5166,5.5139,5.5127,5.5119,5.5081,5.5068,5.5049,5.5021,5.5013,5.5008,5.4997,5.5005,5.4996,5.4999,5.4998,5.4994,5.4998,5.5002,5.4954,5.4953,5.4953,0,0,5.528,5.5261,5.5258,5.524,5.5213,5.5191,5.519,5.5157,5.5143,5.513,5.5102,5.509,5.5061,5.5043,5.503,5.505,5.5029,5.5045,5.5067,5.5065,5.5068,5.5071,5.5079,5.5082,5.5046,5.5046,5.5046,0,5.5305,5.5287,5.5258,5.5249,5.5237,5.5204,5.52,5.5184,5.5152,5.5144,5.5133,5.5097,5.5076,5.5064,5.5069,5.5059,5.5057,5.5049,5.507,5.5073,5.5075,5.5082,5.5085,5.5048,5.5048,5.5047,5.5047,0,5.5319,5.5308,5.5308,5.528,5.5267,5.5261,5.523,5.5221,5.5202,5.5181,5.5169,5.5142,5.5119,5.5115,5.5095,5.51,5.5094,5.5077,5.5057,5.5082,5.5088,5.509,5.5051,5.505,5.505,5.5049,0,0,5.5368,5.5325,5.5325,5.5313,5.5281,5.5271,5.5263,5.5242,5.5235,5.5214,5.5207,5.5184,5.5168,5.5154,5.5132,5.513,5.5148,5.5113,5.5112,5.5121,5.5153,5.5167,5.517,5.5134,5.5135,5.5135,5.5155,0,5.5389,5.5374,5.5348,5.5341,5.5331,5.53,5.5293,5.5272,5.5253,5.524,5.5218,5.5203,5.5183,5.5174,5.5171,5.5147,5.5154,5.5145,5.5127,5.5126,5.5136,5.5173,5.5187,5.5208,5.5158,5.5158,5.5158,0,5.5411,5.5394,5.5387,5.5357,5.5351,5.5346,5.5325,5.5313,5.5289,5.5275,5.526,5.5237,5.5226,5.5208,5.5193,5.5188,5.5179,5.5166,5.5166,5.5163,5.5144,5.5172,5.5214,5.5217,5.5161,5.5161,5.5161,0,5.5448,5.5423,5.5416,5.5406,5.5371,5.5368,5.5353,5.5328,5.5317,5.5299,5.5291,5.5271,5.526,5.5245,5.5217,5.5206,5.5206,5.5185,5.5194,5.5195,5.5195,5.5196,5.5236,5.5188,5.5188,5.5188,5.5188,0,5.5475,5.5472,5.5433,5.5429,5.5425,5.5394,5.5391,5.5373,5.5351,5.5342,5.5313,5.5306,5.5269,5.5257,5.5234,5.5226,5.5221,5.5209,5.5204,5.5212,5.5214,5.5206,5.5204,5.5189,5.5189,5.5189,5.5189,0,5.5516,5.549,5.548,5.5448,5.544,5.5439,5.5411,5.5405,5.5384,5.5374,5.5369,5.5336,5.5321,5.5291,5.5267,5.5252,5.5249,5.5238,5.5257,5.5254,5.5265,5.5264,5.5302,5.5306,5.5255,5.5256,5.5256,0,5.5535,5.5532,5.5501,5.5494,5.548,5.5468,5.5458,5.5428,5.5418,5.5391,5.5389,5.5371,5.5356,5.5332,5.5305,5.5286,5.5276,5.529,5.5273,5.5282,5.5277,5.5278,5.5278,5.5294,5.5295,5.5296,5.5296,0,5.5572,5.5559,5.5546,5.5529,5.5517,5.5502,5.5484,5.548,5.5446,5.5436,5.542,5.5408,5.5384,5.5367,5.5345,5.5328,5.5307,5.5302,5.5303,5.5312,5.5324,5.5319,5.5269,5.5301,5.5301,5.53,5.53,5.53,5.5603,5.56,5.5577,5.5564,5.5548,5.5533,5.5526,5.5506,5.5493,5.5472,5.5454,5.544,5.5417,5.5385,5.537,5.5358,5.5348,5.5349,5.535,5.5351,5.5355,5.5326,5.5354,5.5353,5.5353,5.5353,5.5353,0,5.5639,5.5623,5.5611,5.5589,5.5578,5.556,5.554,5.5532,5.5521,5.5501,5.5487,5.547,5.5453,5.5426,5.5407,5.5403,5.5393,5.5399,5.54,5.5396,5.5364,5.5366,5.5408,5.5408,5.5408,5.5408,5.5408,5.5408,5.5656,5.565,5.5635,5.5621,5.5605,5.5593,5.5583,5.5569,5.5553,5.5536,5.5522,5.5505,5.5482,5.5462,5.5446,5.5439,5.5433,5.5443,5.5432,5.5403,5.5398,5.5393,5.5395,5.5442,5.5442,5.5465,5.5465,5.5466]}]]